Regional Weather Roundup
Issued by NWS Jackson, KY

Home | Current Version | Previous Version | Graphics & Text | Print | Product List | Glossary On
Versions: 1 2 3 4 5 6 7 8 9 10 11 12 13 14 15 16 17 18 19 20 21 22 23 24 25 26 27 28 29 30 31 32 33 34 35 36 37 38 39 40 41 42 43 44 45 46 47 48 49 50
000
ASUS43 KJKL 251310
RWRJKL

EAST KENTUCKY HOURLY WEATHER ROUNDUP
NATIONAL WEATHER SERVICE JACKSON KY
900 AM EDT SAT APR 25 2015

NOTE: "FAIR" INDICATES FEW OR NO CLOUDS BELOW 12,000 FEET WITH
NO SIGNIFICANT WEATHER AND/OR OBSTRUCTIONS TO VISIBILITY.

* THESE REPORTS ARE NOT UNDER NWS QUALITY CONTROL AND MAY NOT
  REPORT WEATHER SUCH AS PRECIPITATION AND FOG.

KYZ079-080-083-085-087-088-110-112-115-119-120-251400
...EASTERN KENTUCKY...

CITY           SKY/WX    TMP DP  RH WIND       PRES   REMARKS
JACKSON        CLOUDY    48  42  80 CALM      29.80F
LONDON         CLOUDY    54  42  64 NE3       29.76R
SOMERSET*      DRIZZLE   52  50  93 CALM      29.76F
MONTICELLO*    CLOUDY    55  53  93 CALM      29.76F
MIDDLESBORO*   LGT RAIN  53  51  92 S7        29.77F
HARLAN APT*    CLOUDY    52  45  76 E5        29.77F
HAZARD APT*    CLOUDY    52  43  71 E5        29.81F
BLACK MTN*       N/A     43  43 100 W1          N/A
PIKEVILLE APT* DRIZZLE   46  43  87 E5        29.82F
BIG SANDY*     CLOUDY    47  45  92 E5        29.81F
MOREHEAD APT*  CLOUDY    46  43  87 VRB5      29.81F
$$

KYZ035-036-041-042-044-050-067-078-099-251400
...CENTRAL KENTUCKY...

CITY           SKY/WX    TMP DP  RH WIND       PRES   REMARKS
MT STERLING*   CLOUDY    48  46  93 SE9       29.80F
FLEMING/MASON* CLOUDY    46  43  87 E5        29.81F
DANVILLE*      LGT RAIN  48  46  93 E6        29.75F
RICHMOND*      CLOUDY    48  46  93 E3        29.77F
LEXINGTON      LGT RAIN  50  45  83 SE10      29.76F
FRANKFORT      LGT RAIN  50  44  80 E8        29.75F
$$

KYZ091>093-OHZ055-061-077-WVZ005-015-034-035-042-251400
...SOUTHERN OHIO/WEST VIRGINIA...

CITY           SKY/WX    TMP DP  RH WIND       PRES   REMARKS
COVINGTON      CLOUDY    48  41  76 E12       29.76F
COLUMBUS       CLOUDY    45  24  43 E12G25    29.87R
DAYTON         LGT RAIN  49  36  61 E8        29.82S
WILMINGTON     CLOUDY    49  32  52 E9        29.80F
HUNTINGTON     CLOUDY    46  40  79 E3        29.83F
CHARLESTON     LGT RAIN  44  41  89 E3        29.85F
PINEVILLE*     LGT RAIN  45  44  95 MISG      29.91F
BECKLEY        CLOUDY    42  36  79 SE9       29.88F
BLUEFIELD      LGT RAIN  42  36  79 SE5       29.89F
$$

VAZ002-007-008-TNZ017-027-036-066-071-251400
...SOUTHWEST VIRGINIA/EAST TENNESSEE...

CITY           SKY/WX    TMP DP  RH WIND       PRES   REMARKS
WISE*          LGT RAIN  50  39  66 SE7       29.80F
JONESVILLE*    CLOUDY    50  48  93 E5        29.78F
ABINGDON*      LGT RAIN  51  46  81 CALM      29.86F
BRISTOL        CLOUDY    53  45  74 CALM      29.86F
KNOXVILLE      CLOUDY    53  48  83 E10G22    29.74F
OAK RIDGE      CLOUDY    53  51  93 CALM      29.78R
CROSSVILLE     CLOUDY    55  52  89 S7G17     29.75R
NASHVILLE      CLOUDY    61  58  90 CALM      29.71S
$$

...KEY TO REMARKS...
VSB - VISIBILITY IN MILES
WCI - WIND CHILL INDEX
HX  - HEAT INDEX

$$



USA.gov is the U.S. government's official web portal to all federal, state and local government web resources and services.